Location: Diati
(11.8376°N, 2.5966°E)
Time: 17:32:54
(UTC+00:00)

Milstar 3 Cent rocket - Pass Details

Date: 21 September 2020
Orbit: 708 x 5145 km, 28.3° (Epoch: 19 October)

Event Time Altitude Azimuth Distance (km) Brightness Sun altitude
Rises 19:23:45 0° 277° (W) 4,943 7.6 -24.7°
Reaches altitude 10° 19:28:38 10° 293° (WNW) 3,273 6.2 -25.9°
Maximum altitude 19:33:53 20° 339° (NNW) 1,999 4.4 -27.2°
Enters shadow 19:36:10 16° 11° (N) 2,029 4.1 -27.7°
